Location: Bowman Observatory
(41.0326°N, 73.6210°W)
Time: 22:25:56
(UTC-04:00)

Cosmos 2298 Rocket - Visible Passes

Search period start: 29 May 2015 00:00
Search period end: 08 June 2015 00:00
Orbit: 776 x 785 km, 74.0° (Epoch: 29 May)

Date Brightness Start Highest point End Pass type
(mag) Time Alt. Az. Time Alt. Az. Time Alt. Az.
29 May 4.3 01:06:55 56° W 01:07:12 56° WNW 01:12:28 10° NNE visible
30 May 3.9 00:33:51 87° NNW 00:33:51 87° NNW 00:39:11 10° NNE visible
30 May 6.4 02:14:36 10° WNW 02:17:04 13° NW 02:19:18 10° NNW visible
31 May 4.2 00:00:45 58° E 00:00:45 58° E 00:05:44 10° NNE visible
31 May 6.0 01:41:15 16° W 01:43:19 19° NW 01:47:00 10° NNW visible
31 May 4.8 23:27:37 36° E 23:27:37 36° E 23:32:07 10° NE visible
01 Jun 5.5 01:08:06 25° W 01:09:39 28° WNW 01:14:12 10° N visible
01 Jun 5.4 22:54:26 23° E 22:54:26 23° E 22:58:13 10° NE visible
02 Jun 4.9 00:34:56 38° W 00:36:06 43° WNW 00:41:11 10° N visible
02 Jun 5.9 22:21:12 14° E 22:21:12 14° E 22:23:47 10° ENE visible
03 Jun 4.2 00:01:41 56° WSW 00:02:38 67° WNW 00:07:59 10° NNE visible
03 Jun 3.9 23:28:24 62° S 23:29:16 78° ESE 23:34:38 10° NNE visible
04 Jun 6.5 01:09:14 10° W 01:12:23 15° NW 01:15:17 10° NNW visible
04 Jun 4.3 22:55:02 44° SE 22:55:58 49° ESE 23:01:07 10° NNE visible
05 Jun 6.0 00:35:31 14° W 00:38:39 22° WNW 00:42:44 10° N visible
05 Jun 4.9 22:21:37 28° ESE 22:22:44 31° E 22:27:25 10° NE visible
06 Jun 5.5 00:02:04 20° WSW 00:05:02 33° WNW 00:09:50 10° N visible
06 Jun 5.4 21:48:05 17° ESE 21:49:32 19° E 21:53:21 10° NE visible
06 Jun 4.7 23:28:33 24° SW 23:31:31 51° WNW 23:36:43 10° N visible
07 Jun 5.9 21:14:42 10° ESE 21:16:24 12° E 21:18:26 10° ENE visible
07 Jun 4.1 22:54:53 25° SSW 22:58:06 80° WNW 23:03:28 10° NNE visible
